Location: Sibbertoft
(52.4361°N, 1.0300°W)
Time: 18:45:34
(UTC+01:00)

OTV 5 (USA 277) - Visible Passes

Search period start: 19 October 2018 00:00
Search period end: 28 October 2018 23:00
Orbit: 387 x 394 km, 54.5° (Epoch: 08 September)

Date Brightness Start Highest point End Pass type
(mag) Time Alt. Az. Time Alt. Az. Time Alt. Az.
25 Oct ? 19:30:02 10° S 19:31:16 15° SSE 19:31:16 15° SSE visible
26 Oct ? 20:08:16 10° SW 20:09:40 22° SSW 20:09:40 22° SSW visible
27 Oct ? 19:12:19 10° SSW 19:15:04 26° SE 19:15:34 25° SE visible
27 Oct ? 20:47:32 10° WSW 20:47:58 13° WSW 20:47:58 13° WSW visible
28 Oct ? 17:16:54 10° S 17:18:52 15° SE 17:20:50 10° E visible
28 Oct ? 18:51:08 10° WSW 18:53:46 53° SSW 18:53:46 53° SSW visible
